Hourly Data Report for February 19, 2012

HALIFAX STANFIELD INT'L A
NOVA SCOTIA

44°52'48.060" N
63°30'00.050" W
145.40 m
8202250
71395
YHZ

Download Data

Hourly Data (February 2012)
Hourly Data Report for February 19, 2012
TIME
LST
Temp Definition
°C
Dew Point Definition
°C
Rel Hum Definition
%
Precip. Amount Definition
mm

Wind Dir Definition
10's deg

Wind Spd Definition
km/h
Visibility Definition
km
Stn Press Definition
kPa
Hmdx Definition


Wind Chill Definition


Weather Definition


00:00 -1.2 -4.2 80   28 17 24.1 98.69   -6 Snow Showers
01:00 -1.6 -4.4 81   27 19 24.1 98.71   -7 Mainly Clear
02:00 -1.4 -4.3 81   28 13 24.1 98.74   -6 Mostly Cloudy
03:00 -1.5 -4.4 81   27 20 24.1 98.75   -7 Mostly Cloudy
04:00 -1.6 -4.4 81   27 19 24.1 98.78   -7 Mostly Cloudy
05:00 -2.2 -5.8 76   30 20 24.1 98.83   -8 Mostly Cloudy
06:00 -3.5 -7.0 77   31 22 24.1 98.85   -10 Mainly Clear
07:00 -3.8 -7.5 75   31 20 24.1 98.87   -10 Mainly Clear
08:00 -3.6 -7.3 75   29 22 24.1 98.93   -10 Mainly Clear
09:00 -3.8 -8.3 71   30 39 24.1 98.97   -12 Mainly Clear
10:00 -3.4 -8.2 69   30 33 24.1 98.97   -11 Mostly Cloudy
11:00 -2.9 -8.6 65   29 32 24.1 98.93   -10 Mainly Clear
12:00 -2.4 -8.0 65   29 28 24.1 98.92   -9 Mainly Clear
13:00 -2.4 -8.5 63   30 30 24.1 98.90   -10 Mainly Clear
14:00 -1.6 -8.4 60   30 26 24.1 98.91   -8 Mainly Clear
15:00 -0.9 -8.0 59   29 24 24.1 98.93   -7 Mainly Clear
16:00 -1.2 -7.9 60   30 28 24.1 98.97   -8 Mainly Clear
17:00 -2.2 -7.9 65   30 22 24.1 99.05   -8 Mainly Clear
18:00 -2.7 -8.3 65   29 24 24.1 99.10   -9 Mainly Clear
19:00 -3.5 -8.4 69   29 13 24.1 99.15   -8 Mainly Clear
20:00 -3.8 -8.8 68   29 15 24.1 99.17   -9 Clear
21:00 -3.8 -9.6 64   30 15 24.1 99.20   -9 Clear
22:00 -4.6 -9.8 67   27 9 24.1 99.22   -8 Clear
23:00 -4.8 -9.9 67   31 15 24.1 99.21   -10 Clear

Notes on Data Quality.

Legend

  • E = Estimated
  • M = Missing
  • NA = Not Available*
  • [empty] = Indicates an unobserved value
Date modified: